When you browse on this site, cookies collect data to enhance your experience and personalize the content and advertising you see.
Visit our Privacy Policy to learn more. By continuing to use the site, you agree to this use of cookies and data.
  • In Hungary
  • List of Countries
  • For 7 days
  • Water Temperature
  • Satellite Maps
  • Weather Map
  • News
  • Weather Widgets
  • user-avatar
    Login

    Hourly Weather Stolberg

    Today, 17 December, Monday

    Time Temperature Precipitation Wind Pressure Humidity
    00:00 +1°C° 0 mm 3 mps 739 mmHg 94%
    01:00 +1°C° 0 mm 3 mps 739 mmHg 93%
    02:00 +1°C° 0 mm 3 mps 739 mmHg 93%
    03:00 +1°C° 0 mm 3 mps 739 mmHg 93%
    04:00 +1°C° 0.1 mm 3 mps 740 mmHg 93%
    05:00 0°C° 0.1 mm 4 mps 740 mmHg 93%
    06:00 0°C° 0.1 mm 4 mps 740 mmHg 93%
    07:00 0°C° 0.4 mm 4 mps 741 mmHg 93%
    08:00 +1°C° 0.4 mm 4 mps 741 mmHg 93%
    09:00 +1°C° 0.4 mm 4 mps 742 mmHg 93%
    10:00 +3°C° 0 mm 4 mps 742 mmHg 91%
    11:00 +3°C° 0 mm 4 mps 743 mmHg 90%
    12:00 +4°C° 0 mm 4 mps 743 mmHg 89%
    13:00 +3°C° 0 mm 4 mps 744 mmHg 90%
    14:00 +3°C° 0 mm 3 mps 744 mmHg 92%
    15:00 +3°C° 0 mm 3 mps 745 mmHg 93%
    16:00 +3°C° 0 mm 3 mps 745 mmHg 93%
    17:00 +2°C° 0 mm 3 mps 745 mmHg 94%
    18:00 +1°C° 0 mm 4 mps 746 mmHg 94%
    19:00 +1°C° 0 mm 4 mps 746 mmHg 94%
    20:00 +1°C° 0 mm 4 mps 747 mmHg 94%
    21:00 +1°C° 0 mm 4 mps 747 mmHg 94%
    22:00 +2°C° 0 mm 3 mps 747 mmHg 94%
    23:00 +2°C° 0 mm 3 mps 747 mmHg 94%

    Tomorrow, 18 December, Tuesday

    Time Temperature Precipitation Wind Pressure Humidity
    00:00 +2°C° 0 mm 3 mps 747 mmHg 94%
    01:00 +2°C° 0 mm 3 mps 747 mmHg 94%
    02:00 +2°C° 0 mm 3 mps 747 mmHg 94%
    03:00 +2°C° 0 mm 3 mps 747 mmHg 94%
    04:00 +2°C° 0 mm 3 mps 747 mmHg 93%
    05:00 +2°C° 0 mm 3 mps 746 mmHg 93%
    06:00 +2°C° 0 mm 3 mps 746 mmHg 93%
    07:00 +2°C° 0 mm 3 mps 746 mmHg 93%
    08:00 +2°C° 0 mm 3 mps 746 mmHg 92%
    09:00 +2°C° 0 mm 3 mps 746 mmHg 91%
    10:00 +3°C° 0 mm 4 mps 745 mmHg 88%
    11:00 +4°C° 0 mm 4 mps 745 mmHg 85%
    12:00 +4°C° 0 mm 4 mps 744 mmHg 83%
    13:00 +4°C° 0 mm 4 mps 743 mmHg 81%
    14:00 +3°C° 0 mm 4 mps 743 mmHg 80%
    15:00 +3°C° 0 mm 4 mps 742 mmHg 79%
    16:00 +3°C° 0 mm 4 mps 741 mmHg 77%
    17:00 +1°C° 0 mm 5 mps 741 mmHg 76%
    18:00 +1°C° 0 mm 5 mps 740 mmHg 75%
    19:00 +1°C° 0 mm 5 mps 740 mmHg 73%
    20:00 +1°C° 0 mm 5 mps 740 mmHg 71%
    21:00 +1°C° 0 mm 5 mps 739 mmHg 69%
    22:00 +2°C° 0 mm 5 mps 739 mmHg 70%
    23:00 +2°C° 0 mm 5 mps 738 mmHg 71%

    Day after tomorrow, 19 December, Wednesday

    Time Temperature Precipitation Wind Pressure Humidity
    00:00 +2°C° 0 mm 5 mps 738 mmHg 71%
    01:00 +2°C° 0 mm 5 mps 738 mmHg 75%
    02:00 +3°C° 0 mm 5 mps 737 mmHg 78%
    03:00 +3°C° 0 mm 5 mps 737 mmHg 81%
    04:00 +3°C° 0.2 mm 5 mps 737 mmHg 83%
    05:00 +3°C° 0.2 mm 5 mps 737 mmHg 85%
    06:00 +3°C° 0.2 mm 5 mps 737 mmHg 88%
    07:00 +4°C° 0 mm 4 mps 738 mmHg 89%
    08:00 +5°C° 0 mm 4 mps 738 mmHg 90%
    09:00 +5°C° 0 mm 3 mps 738 mmHg 91%
    10:00 +5°C° 0 mm 3 mps 738 mmHg 89%
    11:00 +7°C° 0 mm 3 mps 738 mmHg 86%
    12:00 +7°C° 0 mm 3 mps 738 mmHg 84%
    13:00 +7°C° 0 mm 3 mps 738 mmHg 85%
    14:00 +7°C° 0 mm 3 mps 738 mmHg 87%
    15:00 +5°C° 0 mm 4 mps 738 mmHg 88%
    16:00 +5°C° 0.1 mm 3 mps 738 mmHg 89%
    17:00 +5°C° 0.1 mm 3 mps 738 mmHg 89%
    18:00 +5°C° 0.1 mm 3 mps 738 mmHg 90%
    19:00 +5°C° 0 mm 3 mps 738 mmHg 90%
    20:00 +4°C° 0 mm 3 mps 738 mmHg 91%
    21:00 +4°C° 0 mm 3 mps 738 mmHg 92%
    22:00 +4°C° 0 mm 3 mps 738 mmHg 92%
    23:00 +3°C° 0 mm 3 mps 738 mmHg 93%

    20 December, Thursday

    Time Temperature Precipitation Wind Pressure Humidity
    00:00 +3°C° 0 mm 3 mps 738 mmHg 93%
    01:00 +3°C° 0.1 mm 3 mps 738 mmHg 93%
    02:00 +3°C° 0.1 mm 3 mps 739 mmHg 93%
    03:00 +3°C° 0.1 mm 3 mps 739 mmHg 93%
    04:00 +3°C° 0 mm 3 mps 739 mmHg 93%
    05:00 +3°C° 0 mm 3 mps 739 mmHg 92%
    06:00 +2°C° 0 mm 3 mps 739 mmHg 92%
    07:00 +3°C° 0 mm 3 mps 739 mmHg 90%
    08:00 +3°C° 0 mm 4 mps 740 mmHg 89%
    09:00 +3°C° 0 mm 4 mps 740 mmHg 87%
    10:00 +4°C° 0 mm 4 mps 740 mmHg 85%
    11:00 +3°C° 0 mm 5 mps 740 mmHg 83%
    12:00 +5°C° 0 mm 5 mps 740 mmHg 81%
    13:00 +4°C° 0 mm 4 mps 740 mmHg 82%
    14:00 +4°C° 0 mm 4 mps 740 mmHg 83%
    15:00 +4°C° 0 mm 4 mps 740 mmHg 84%
    16:00 +4°C° 0.5 mm 4 mps 740 mmHg 85%
    17:00 +3°C° 0.5 mm 4 mps 740 mmHg 86%
    18:00 +2°C° 0.5 mm 5 mps 740 mmHg 87%
    19:00 +2°C° 0.9 mm 5 mps 740 mmHg 88%
    20:00 +3°C° 0.9 mm 5 mps 740 mmHg 88%
    21:00 +3°C° 0.9 mm 5 mps 740 mmHg 88%
    22:00 +3°C° 1.1 mm 5 mps 740 mmHg 89%
    23:00 +3°C° 1.1 mm 5 mps 740 mmHg 90%

    21 December, Friday

    Time Temperature Precipitation Wind Pressure Humidity
    00:00 +3°C° 1.1 mm 5 mps 740 mmHg 90%
    01:00 +3°C° 1 mm 5 mps 740 mmHg 90%
    02:00 +3°C° 1 mm 5 mps 740 mmHg 90%
    03:00 +3°C° 1 mm 5 mps 740 mmHg 90%
    04:00 +3°C° 0.5 mm 5 mps 740 mmHg 90%
    05:00 +4°C° 0.5 mm 4 mps 740 mmHg 90%
    06:00 +4°C° 0.5 mm 4 mps 740 mmHg 90%
    07:00 +4°C° 0.1 mm 4 mps 740 mmHg 89%
    08:00 +4°C° 0.1 mm 4 mps 740 mmHg 89%
    09:00 +4°C° 0.1 mm 3 mps 740 mmHg 88%
    10:00 +5°C° 0.1 mm 4 mps 740 mmHg 87%
    11:00 +5°C° 0.1 mm 4 mps 739 mmHg 87%
    12:00 +6°C° 0.1 mm 4 mps 738 mmHg 86%
    13:00 +6°C° 0.9 mm 4 mps 738 mmHg 87%
    14:00 +6°C° 0.9 mm 4 mps 737 mmHg 88%
    15:00 +6°C° 0.9 mm 4 mps 737 mmHg 90%
    16:00 +6°C° 0.5 mm 4 mps 737 mmHg 90%
    17:00 +7°C° 0.5 mm 5 mps 736 mmHg 91%
    18:00 +7°C° 0.5 mm 5 mps 736 mmHg 91%
    19:00 +8°C° 0.2 mm 5 mps 736 mmHg 92%
    20:00 +8°C° 0.2 mm 5 mps 737 mmHg 93%
    21:00 +8°C° 0.2 mm 5 mps 737 mmHg 94%
    22:00 +8°C° 0.1 mm 5 mps 737 mmHg 93%
    23:00 +8°C° 0.1 mm 6 mps 738 mmHg 92%

    22 December, Saturday

    Time Temperature Precipitation Wind Pressure Humidity
    00:00 +8°C° 0.1 mm 6 mps 739 mmHg 91%
    01:00 +7°C° 0 mm 6 mps 739 mmHg 90%
    02:00 +6°C° 0 mm 5 mps 740 mmHg 89%
    03:00 +6°C° 0 mm 5 mps 741 mmHg 88%
    04:00 +5°C° 0 mm 4 mps 741 mmHg 89%
    05:00 +5°C° 0 mm 4 mps 742 mmHg 90%
    06:00 +5°C° 0 mm 4 mps 742 mmHg 92%
    07:00 +5°C° 0 mm 4 mps 742 mmHg 91%
    08:00 +5°C° 0 mm 4 mps 743 mmHg 90%
    09:00 +6°C° 0 mm 4 mps 743 mmHg 90%
    10:00 +6°C° 0.2 mm 4 mps 743 mmHg 88%
    11:00 +6°C° 0.2 mm 4 mps 743 mmHg 87%
    12:00 +6°C° 0.2 mm 4 mps 743 mmHg 86%
    13:00 +7°C° 0.1 mm 3 mps 743 mmHg 87%
    14:00 +7°C° 0.1 mm 3 mps 743 mmHg 89%
    15:00 +7°C° 0.1 mm 2 mps 743 mmHg 91%
    16:00 +7°C° 0 mm 2 mps 743 mmHg 92%
    17:00 +7°C° 0 mm 2 mps 744 mmHg 94%
    18:00 +6°C° 0 mm 2 mps 744 mmHg 95%
    19:00 +6°C° 0 mm 2 mps 745 mmHg 96%
    20:00 +6°C° 0 mm 2 mps 745 mmHg 96%
    21:00 +6°C° 0 mm 2 mps 745 mmHg 97%
    22:00 +7°C° 0 mm 2 mps 746 mmHg 97%
    23:00 +7°C° 0 mm 2 mps 746 mmHg 97%
    Show more